Susqueda - Veïnat del Far (La Selva)





Hora UTC 17:55
Temperatura 7.9 ºC
Humedad 92.0 %
Presión 1010.8 hPa
Pluja 0.0 mm
Velocidad viento 3.2 km/h
Dirección viento N

Datos diarios 2024-04-16



Hora UTC (invierno +1h; verano +2h)
Temperatura (ºC) Humedad (%) Presión (hPa) Velocidad viento (km/h) Precipitación (mm)
Hora UTC Aire Humedad Presión Vel. Dir. Vel. Max Dir. Intent. máx 5 min.
00:05 10.9 71.0 1013.0 1.6 N 1.6 0.0
00:10 10.8 72.0 1013.1 3.2 N 6.4 0.0
00:15 10.9 71.0 1013.0 1.6 N 8.0 0.0
00:20 10.9 71.0 1012.7 6.4 N 8.0 0.0
00:25 10.9 70.0 1012.8 0.0 N 8.0 0.0
00:30 10.8 71.0 1012.9 0.0 N 8.0 0.0
00:35 10.6 72.0 1012.7 1.6 N 3.2 0.0
00:40 10.2 72.0 1012.8 3.2 N 8.0 0.0
00:45 10.1 73.0 1012.8 6.4 N 8.0 0.0
00:50 10.2 72.0 1012.7 3.2 N 8.0 0.0
00:55 10.2 74.0 1012.6 1.6 N 8.0 0.0
01:00 10.1 73.0 1012.5 4.8 N 8.0 0.0
01:05 10.1 74.0 1012.4 3.2 N 8.0 0.0
01:10 10.1 74.0 1012.5 3.2 N 4.8 0.0
01:15 9.9 74.0 1012.3 4.8 N 6.4 0.0
01:20 9.9 74.0 1012.3 1.6 N 6.4 0.0
01:25 9.8 75.0 1012.2 0.0 N 6.4 0.0
01:30 9.7 75.0 1012.1 3.2 N 6.4 0.0
01:35 9.6 76.0 1012.1 3.2 N 6.4 0.0
01:40 9.6 76.0 1011.9 1.6 N 6.4 0.0
01:45 9.4 76.0 1011.9 0.0 N 6.4 0.0
01:50 9.3 77.0 1012.0 0.0 N 4.8 0.0
01:55 9.2 77.0 1011.8 1.6 N 4.8 0.0
02:00 9.1 77.0 1011.8 1.6 N 3.2 0.0
02:05 9.0 78.0 1011.7 1.6 N 3.2 0.0
02:10 8.9 79.0 1011.6 4.8 N 6.4 0.0
02:15 8.9 79.0 1011.5 1.6 N 6.4 0.0
02:20 8.9 79.0 1011.4 1.6 N 6.4 0.0
02:25 8.8 80.0 1011.4 1.6 N 3.2 0.0
02:30 8.7 81.0 1011.4 6.4 N 8.0 0.0
02:35 8.7 81.0 1011.5 4.8 N 8.0 0.0
02:40 8.7 81.0 1011.5 6.4 N 8.0 0.0
02:45 8.8 80.0 1011.3 4.8 N 8.0 0.0
02:50 8.9 80.0 1011.2 3.2 N 8.0 0.0
02:55 8.8 80.0 1011.5 6.4 N 8.0 0.0
03:00 8.8 80.0 1011.3 4.8 N 8.0 0.0
03:05 8.8 80.0 1011.4 3.2 N 6.4 0.0
03:10 8.8 79.0 1011.4 1.6 N 4.8 0.0
03:15 8.7 80.0 1011.4 1.6 N 4.8 0.0
03:20 8.6 80.0 1011.4 1.6 N 4.8 0.0
03:25 8.5 81.0 1011.3 1.6 N 3.2 0.0
03:30 8.4 82.0 1011.1 3.2 N 4.8 0.0
03:35 8.4 83.0 1011.0 3.2 N 4.8 0.0
03:40 8.4 84.0 1010.9 3.2 N 6.4 0.0
03:45 8.3 85.0 1010.8 3.2 N 8.0 0.0
03:50 8.3 85.0 1010.7 6.4 N 8.0 0.0
03:55 8.2 85.0 1010.8 4.8 N 8.0 0.0
04:00 8.1 85.0 1010.7 6.4 N 6.4 0.0
04:05 8.1 86.0 1010.6 3.2 N 6.4 0.0
04:10 7.9 85.0 1010.7 3.2 N 6.4 0.0
04:15 7.8 86.0 1010.6 3.2 N 6.4 0.0
04:20 7.9 86.0 1010.8 3.2 N 6.4 0.0
04:25 7.9 86.0 1010.9 1.6 N 4.8 0.0
04:30 7.8 86.0 1010.2 4.8 N 6.4 0.0
04:35 7.8 87.0 1010.2 4.8 N 6.4 0.0
04:40 7.7 86.0 1010.4 9.7 N 9.7 0.0
04:45 7.3 87.0 1010.6 4.8 N 9.7 0.0
04:50 7.1 86.0 1010.5 3.2 N 8.0 0.0
04:55 6.9 86.0 1010.7 3.2 N 6.4 0.0
05:00 6.7 87.0 1010.7 6.4 N 9.7 0.0
05:05 6.9 87.0 1010.8 3.2 N 9.7 0.0
05:10 7.1 87.0 1010.8 4.8 N 11.3 0.0
05:15 7.2 87.0 1010.6 6.4 N 11.3 0.0
05:20 7.3 86.0 1010.5 6.4 N 11.3 0.0
05:25 7.3 86.0 1010.5 9.7 N 11.3 0.0
05:30 7.1 85.0 1010.4 8.0 N 12.9 0.0
05:35 6.9 86.0 1010.4 8.0 N 11.3 0.0
05:40 6.7 86.0 1010.4 8.0 N 11.3 0.0
05:45 6.8 86.0 1010.5 8.0 N 11.3 0.0
05:50 7.1 86.0 1010.6 6.4 N 11.3 0.0
05:55 7.3 86.0 1010.5 6.4 N 9.7 0.0
06:00 7.3 85.0 1010.4 9.7 N 12.9 0.0
06:05 7.3 85.0 1010.7 9.7 N 12.9 0.0
06:10 7.4 84.0 1010.7 8.0 N 11.3 0.0
06:15 7.5 83.0 1010.7 8.0 N 11.3 0.0
06:20 7.4 83.0 1010.8 8.0 N 12.9 0.0
06:25 7.4 83.0 1010.8 8.0 N 12.9 0.0
06:30 7.7 82.0 1010.8 6.4 N 12.9 0.0
06:35 7.8 81.0 1010.8 4.8 N 12.9 0.0
06:40 7.8 80.0 1010.9 8.0 N 12.9 0.0
06:45 8.0 81.0 1010.7 6.4 N 12.9 0.0
06:50 8.1 81.0 1010.8 11.3 N 12.9 0.0
06:55 8.2 82.0 1010.9 6.4 N 11.3 0.0
07:00 8.3 82.0 1010.9 3.2 N 9.7 0.0
07:05 8.6 83.0 1011.0 3.2 N 9.7 0.0
07:10 8.9 83.0 1010.9 1.6 N 4.8 0.0
07:15 9.4 82.0 1011.0 1.6 N 4.8 0.0
07:20 9.7 81.0 1010.8 4.8 N 8.0 0.0
07:25 9.7 80.0 1010.6 4.8 N 8.0 0.0
07:30 9.8 80.0 1010.9 0.0 N 4.8 0.0
07:35 9.8 79.0 1010.9 4.8 N 6.4 0.0
07:40 9.8 79.0 1010.9 4.8 N 6.4 0.0
07:45 9.9 79.0 1011.2 1.6 N 6.4 0.0
07:50 10.1 79.0 1011.2 3.2 N 8.0 0.0
07:55 10.2 78.0 1011.0 3.2 N 6.4 0.0
08:00 10.3 77.0 1011.1 3.2 N 6.4 0.0
08:05 10.4 77.0 1010.9 1.6 N 6.4 0.0
08:10 10.6 76.0 1011.0 0.0 N 4.8 0.0
08:15 10.8 74.0 1011.2 3.2 N 4.8 0.0
08:20 10.8 73.0 1011.1 3.2 N 4.8 0.0
08:25 10.9 73.0 1011.1 3.2 N 4.8 0.0
08:30 11.0 73.0 1011.0 6.4 N 8.0 0.0
08:35 10.9 73.0 1011.2 4.8 N 8.0 0.0
08:40 10.9 73.0 1011.0 3.2 N 8.0 0.0
08:45 11.2 73.0 1011.0 3.2 N 8.0 0.0
08:50 11.5 72.0 1010.9 3.2 N 6.4 0.0
08:55 11.7 71.0 1010.9 0.0 N 6.4 0.0
09:00 11.8 70.0 1011.0 0.0 N 4.8 0.0
09:05 12.1 69.0 1010.9 4.8 N 8.0 0.0
09:10 12.1 69.0 1011.2 1.6 N 8.0 0.0
09:15 12.2 68.0 1011.2 0.0 N 8.0 0.0
09:20 12.3 69.0 1011.0 1.6 N 6.4 0.0
09:25 12.8 69.0 1011.2 1.6 N 6.4 0.0
09:30 13.3 67.0 1011.2 3.2 N 4.8 0.0
09:35 13.0 66.0 1011.2 1.6 N 6.4 0.0
09:40 12.8 66.0 1011.2 8.0 N 9.7 0.0
09:45 11.9 69.0 1011.2 3.2 N 9.7 0.0
09:50 11.4 71.0 1011.1 3.2 N 9.7 0.0
09:55 11.2 72.0 1011.2 4.8 N 9.7 0.0
10:00 11.2 73.0 1011.1 3.2 N 6.4 0.0
10:05 11.2 73.0 1011.1 3.2 N 6.4 0.0
10:10 11.2 73.0 1011.2 4.8 N 8.0 0.0
10:15 11.1 73.0 1011.2 1.6 N 8.0 0.0
10:20 11.0 73.0 1011.2 3.2 N 6.4 0.0
10:25 10.8 73.0 1011.3 3.2 N 6.4 0.0
10:30 10.6 74.0 1011.4 3.2 N 8.0 0.0
10:35 10.3 75.0 1011.3 3.2 N 8.0 0.0
10:40 10.3 76.0 1011.2 6.4 N 8.0 0.0
10:45 10.4 76.0 1011.2 3.2 N 8.0 0.0
10:50 10.9 75.0 1011.3 1.6 N 8.0 0.0
10:55 10.9 74.0 1011.3 1.6 N 9.7 0.0
11:00 11.1 73.0 1011.4 0.0 N 8.0 0.0
11:05 11.1 73.0 1011.2 3.2 N 11.3 0.0
11:10 11.0 73.0 1011.2 1.6 N 11.3 0.0
11:15 10.8 73.0 1011.1 4.8 N 12.9 0.0
11:20 10.9 74.0 1011.1 6.4 N 12.9 0.0
11:25 11.0 74.0 1011.0 6.4 N 11.3 0.0
11:30 11.1 74.0 1011.0 4.8 N 12.9 0.0
11:35 10.9 74.0 1010.7 6.4 N 12.9 0.0
11:40 10.8 75.0 1010.9 3.2 N 14.5 0.0
11:45 10.7 75.0 1010.9 4.8 N 14.5 0.0
11:50 10.8 76.0 1010.8 4.8 N 14.5 0.0
11:55 11.0 76.0 1010.7 8.0 N 17.7 0.0
12:00 10.9 75.0 1010.7 3.2 N 17.7 0.0
12:05 11.1 76.0 1010.5 9.7 N 16.1 0.0
12:10 11.6 76.0 1010.6 1.6 N 14.5 0.0
12:15 12.2 74.0 1010.6 11.3 N 14.5 0.0
12:20 12.6 72.0 1010.7 9.7 N 16.1 0.0
12:25 12.4 72.0 1010.4 6.4 N 16.1 0.0
12:30 12.5 72.0 1010.5 11.3 N 20.9 0.0
12:35 12.8 73.0 1010.4 4.8 N 20.9 0.0
12:40 13.3 70.0 1010.7 1.6 N 16.1 0.0
12:45 13.7 71.0 1010.4 6.4 N 14.5 0.0
12:50 13.8 69.0 1010.3 1.6 N 11.3 0.0
12:55 13.3 69.0 1010.4 3.2 N 11.3 0.0
13:00 12.4 72.0 1010.5 4.8 N 17.7 0.0
13:05 12.3 75.0 1010.4 6.4 N 17.7 0.0
13:10 12.4 75.0 1010.2 4.8 N 17.7 0.0
13:15 12.2 76.0 1010.2 6.4 N 14.5 0.0
13:20 12.3 75.0 1010.2 11.3 N 14.5 0.0
13:25 12.2 76.0 1010.3 3.2 N 14.5 0.0
13:30 12.1 77.0 1010.3 3.2 N 12.9 0.0
13:35 11.6 77.0 1010.1 3.2 N 16.1 0.0
13:40 10.9 80.0 1010.3 3.2 N 16.1 0.0
13:45 10.9 81.0 1010.1 4.8 N 16.1 0.0
13:50 10.8 82.0 1010.2 4.8 N 12.9 0.0
13:55 10.7 81.0 1010.0 4.8 N 9.7 0.0
14:00 10.4 82.0 1010.1 12.9 N 20.9 0.0
14:05 10.4 83.0 1010.1 6.4 N 20.9 0.0
14:10 10.3 83.0 1010.1 3.2 N 12.9 0.0
14:15 10.3 84.0 1009.9 3.2 N 9.7 0.0
14:20 9.9 84.0 1010.1 1.6 N 17.7 0.0
14:25 9.9 85.0 1010.1 4.8 N 17.7 0.0
14:30 9.8 85.0 1009.9 11.3 N 17.7 0.0
14:35 9.6 86.0 1010.0 12.9 N 17.7 0.0
14:40 9.3 87.0 1009.9 9.7 N 17.7 0.0
14:45 9.2 87.0 1010.1 4.8 N 16.1 0.0
14:50 9.2 88.0 1010.0 0.0 N 9.7 0.0
14:55 9.2 88.0 1010.0 6.4 N 11.3 0.0
15:00 9.2 88.0 1010.0 3.2 N 14.5 0.0
15:05 9.1 88.0 1010.0 6.4 N 14.5 0.0
15:10 8.9 88.0 1010.1 3.2 N 12.9 0.0
15:15 8.9 88.0 1009.9 4.8 N 11.3 0.0
15:20 8.7 89.0 1009.8 3.2 N 12.9 0.0
15:25 8.7 89.0 1009.9 4.8 N 12.9 0.0
15:30 8.7 89.0 1009.8 4.8 N 12.9 0.0
15:35 8.6 90.0 1009.8 8.0 N 12.9 0.0
15:40 8.6 90.0 1009.8 3.2 N 14.5 0.0
15:45 8.6 90.0 1009.9 4.8 N 14.5 0.0
15:50 8.6 90.0 1009.9 3.2 N 14.5 0.0
15:55 8.4 90.0 1009.8 3.2 N 14.5 0.0
16:00 8.4 90.0 1009.7 3.2 N 11.3 0.0
16:05 8.3 90.0 1009.8 3.2 N 14.5 0.0
16:10 8.3 90.0 1009.9 6.4 N 14.5 0.0
16:15 8.3 90.0 1009.6 12.9 N 12.9 0.0
16:20 8.3 90.0 1009.8 4.8 N 12.9 0.0
16:25 8.3 90.0 1009.9 3.2 N 14.5 0.0
16:30 8.3 91.0 1009.8 4.8 N 14.5 0.0
16:35 8.3 91.0 1009.8 6.4 N 11.3 0.0
16:40 8.3 91.0 1010.0 6.4 N 11.3 0.0
16:45 8.3 91.0 1010.0 6.4 N 11.3 0.0
16:50 8.3 91.0 1010.0 9.7 N 11.3 0.0
16:55 8.3 91.0 1009.8 11.3 N 14.5 0.0
17:00 8.2 91.0 1009.9 8.0 N 17.7 0.0
17:05 8.0 91.0 1009.9 3.2 N 17.7 0.0
17:10 7.8 91.0 1010.0 1.6 N 12.9 0.0
17:15 7.7 91.0 1010.2 3.2 N 11.3 0.0
17:20 7.7 91.0 1010.3 1.6 N 14.5 0.0
17:25 7.8 91.0 1010.4 1.6 N 9.7 0.0
17:30 7.8 91.0 1010.5 1.6 N 12.9 0.0
17:35 7.8 91.0 1010.6 4.8 N 12.9 0.0
17:40 7.9 92.0 1010.7 1.6 N 12.9 0.0
17:45 7.9 92.0 1010.8 1.6 N 12.9 0.0
17:50 7.9 92.0 1010.8 4.8 N 11.3 0.0
17:55 7.9 92.0 1010.8 3.2 N 8.0 0.0
Máxima 13.9 92.0 1013.1 12.9 N 20.9 0.0
Mínima 6.7 66.0 1009.6
Total 0.0